Terminal Aerodrome Forecast
Issued by NWS

Home | Current Version | Previous Version | Text Only | Print | Product List | Glossary On
Versions: 1 2 3 4 5 6 7 8 9 10 11 12 13 14 15 16 17 18 19 20 21 22
000
FTUS43 KDLH 221100
TAFHYR
TAF
KHYR 221123Z 2212/2312 33011KT P6SM -SN OVC035
      TEMPO 2212/2216 4SM -SN OVC025
     FM221600 30011G20KT P6SM BKN035 OVC060
     FM230100 33005KT P6SM OVC050=

USA.gov is the U.S. government's official web portal to all federal, state and local government web resources and services.